Time,TemperatureF,DewpointF,PressureIn,WindDirection,WindDirectionDegrees,WindSpeedMPH,WindSpeedGustMPH,Humidity,HourlyPrecipIn,Conditions,Clouds,dailyrainin,SoftwareType,DateUTC
2013-03-31 00:02:00,67.0,61.0,29.86,SE,130,2.0,5.0,81,0.00,,,0.34,,2013-03-31 05:02:00,
2013-03-31 00:12:00,67.0,61.0,29.86,SE,130,2.0,5.0,81,0.00,,,0.34,,2013-03-31 05:12:00,
2013-03-31 00:22:00,67.0,61.0,29.85,SE,130,0.0,3.0,81,0.00,,,0.34,,2013-03-31 05:22:00,
2013-03-31 00:32:00,67.0,61.0,29.85,SE,130,1.0,3.0,81,0.00,,,0.34,,2013-03-31 05:32:00,
2013-03-31 00:42:00,67.0,61.0,29.85,SE,130,1.0,3.0,81,0.00,,,0.34,,2013-03-31 05:42:00,
2013-03-31 00:53:00,67.0,61.0,29.85,SE,130,3.0,7.0,81,0.00,,,0.34,,2013-03-31 05:53:00,
2013-03-31 01:02:00,67.0,61.0,29.84,SE,141,6.0,12.0,80,0.00,,,0.34,,2013-03-31 06:02:00,
2013-03-31 01:12:00,67.0,61.0,29.84,SE,141,6.0,12.0,80,0.00,,,0.34,,2013-03-31 06:12:00,
2013-03-31 01:22:00,68.0,61.0,29.84,SSE,147,7.0,12.0,78,0.00,,,0.34,,2013-03-31 06:22:00,
2013-03-31 01:32:00,68.0,61.0,29.83,SE,141,10.0,14.0,78,0.00,,,0.34,,2013-03-31 06:32:00,
2013-03-31 01:42:00,68.0,61.0,29.83,SE,141,10.0,14.0,78,0.00,,,0.34,,2013-03-31 06:42:00,
2013-03-31 01:52:00,67.0,60.0,29.83,SE,141,8.0,13.0,79,0.00,,,0.34,,2013-03-31 06:52:00,
2013-03-31 02:02:00,67.0,61.0,29.83,SSE,163,5.0,12.0,80,0.00,,,0.34,,2013-03-31 07:02:00,
2013-03-31 02:12:00,67.0,61.0,29.83,SSE,163,5.0,12.0,80,0.00,,,0.34,,2013-03-31 07:12:00,
2013-03-31 02:22:00,66.0,60.0,29.83,SE,145,7.0,13.0,81,0.00,,,0.34,,2013-03-31 07:22:00,
2013-03-31 02:32:00,66.0,60.0,29.83,SSE,148,7.0,12.0,82,0.00,,,0.34,,2013-03-31 07:32:00,
2013-03-31 02:42:00,66.0,60.0,29.83,SSE,148,7.0,12.0,82,0.00,,,0.34,,2013-03-31 07:42:00,
2013-03-31 02:53:00,65.0,60.0,29.83,SSE,157,6.0,15.0,83,0.00,,,0.06,,2013-03-31 07:53:00,
2013-03-31 03:02:00,65.0,60.0,29.82,SSE,152,7.0,12.0,84,0.00,,,0.04,,2013-03-31 08:02:00,
2013-03-31 03:12:00,65.0,60.0,29.82,SSE,152,7.0,12.0,84,0.00,,,0.04,,2013-03-31 08:12:00,
2013-03-31 03:22:00,65.0,60.0,29.82,SSE,154,4.0,9.0,85,0.00,,,0.03,,2013-03-31 08:22:00,
2013-03-31 03:32:00,65.0,61.0,29.81,SSE,147,5.0,12.0,86,0.00,,,0.02,,2013-03-31 08:32:00,
2013-03-31 03:42:00,65.0,61.0,29.81,SSE,147,5.0,12.0,86,0.00,,,0.02,,2013-03-31 08:42:00,
2013-03-31 03:52:00,65.0,61.0,29.81,SE,139,6.0,12.0,86,0.00,,,0.01,,2013-03-31 08:52:00,
2013-03-31 04:02:00,65.0,61.0,29.81,SE,139,7.0,18.0,87,0.00,,,0.01,,2013-03-31 09:02:00,
2013-03-31 04:12:00,65.0,61.0,29.81,SE,139,7.0,18.0,87,0.00,,,0.01,,2013-03-31 09:12:00,
2013-03-31 04:22:00,65.0,61.0,29.80,SSE,157,6.0,12.0,87,0.00,,,0.01,,2013-03-31 09:22:00,
2013-03-31 04:33:00,65.0,61.0,29.80,SSE,149,7.0,12.0,88,0.00,,,0.01,,2013-03-31 09:33:00,
2013-03-31 04:42:00,65.0,61.0,29.80,SSE,149,7.0,12.0,88,0.00,,,0.01,,2013-03-31 09:42:00,
2013-03-31 04:53:00,65.0,62.0,29.80,SSE,150,7.0,12.0,89,0.00,,,0.01,,2013-03-31 09:53:00,
2013-03-31 05:03:00,65.0,62.0,29.79,SSE,152,6.0,12.0,89,0.00,,,0.01,,2013-03-31 10:03:00,
2013-03-31 05:13:00,65.0,62.0,29.79,SSE,152,6.0,12.0,89,0.00,,,0.01,,2013-03-31 10:13:00,
2013-03-31 05:23:00,64.0,61.0,29.79,SE,144,6.0,13.0,90,0.00,,,0.01,,2013-03-31 10:23:00,
2013-03-31 05:32:00,64.0,61.0,29.78,SSE,154,5.0,10.0,91,0.00,,,0.01,,2013-03-31 10:32:00,
2013-03-31 05:42:00,64.0,61.0,29.78,SSE,154,5.0,10.0,91,0.00,,,0.01,,2013-03-31 10:42:00,
2013-03-31 05:53:00,64.0,61.0,29.78,SSE,157,5.0,9.0,91,0.00,,,0.01,,2013-03-31 10:53:00,
2013-03-31 06:02:00,64.0,62.0,29.78,SSE,150,5.0,12.0,92,0.00,,,0.01,,2013-03-31 11:02:00,
2013-03-31 06:12:00,64.0,62.0,29.78,SSE,150,5.0,12.0,92,0.00,,,0.01,,2013-03-31 11:12:00,
2013-03-31 06:23:00,64.0,62.0,29.78,SSE,164,6.0,13.0,92,0.00,,,0.01,,2013-03-31 11:23:00,
2013-03-31 06:32:00,64.0,62.0,29.78,SSE,149,5.0,9.0,92,0.00,,,0.01,,2013-03-31 11:32:00,
2013-03-31 06:42:00,64.0,62.0,29.78,SSE,149,5.0,9.0,92,0.00,,,0.01,,2013-03-31 11:42:00,
2013-03-31 06:52:00,64.0,62.0,29.77,SSE,158,8.0,13.0,92,0.00,,,0.01,,2013-03-31 11:52:00,
2013-03-31 07:02:00,64.0,62.0,29.76,South,184,7.0,13.0,92,0.00,,,0.01,,2013-03-31 12:02:00,
2013-03-31 07:12:00,64.0,62.0,29.76,South,184,7.0,13.0,92,0.00,,,0.01,,2013-03-31 12:12:00,
2013-03-31 07:22:00,65.0,63.0,29.77,SSE,168,10.0,15.0,92,0.00,,,0.01,,2013-03-31 12:22:00,
2013-03-31 07:33:00,65.0,62.0,29.76,SSE,155,12.0,21.0,91,0.00,,,0.01,,2013-03-31 12:33:00,
2013-03-31 07:42:00,65.0,62.0,29.76,SSE,155,12.0,21.0,91,0.00,,,0.01,,2013-03-31 12:42:00,
2013-03-31 07:53:00,65.0,62.0,29.76,South,175,12.0,25.0,91,0.00,,,0.01,,2013-03-31 12:53:00,
2013-03-31 08:02:00,66.0,63.0,29.77,South,174,10.0,24.0,90,0.00,,,0.01,,2013-03-31 13:02:00,
2013-03-31 08:12:00,66.0,63.0,29.77,South,174,10.0,24.0,90,0.00,,,0.01,,2013-03-31 13:12:00,
2013-03-31 08:22:00,66.0,63.0,29.83,WNW,286,5.0,16.0,90,0.00,,,0.01,,2013-03-31 13:22:00,
2013-03-31 08:32:00,66.0,62.0,29.88,WNW,291,10.0,16.0,88,0.00,,,0.01,,2013-03-31 13:32:00,
2013-03-31 08:42:00,66.0,62.0,29.88,WNW,291,10.0,16.0,88,0.00,,,0.01,,2013-03-31 13:42:00,
2013-03-31 08:53:00,66.0,62.0,29.90,WNW,291,8.0,13.0,87,0.00,,,0.01,,2013-03-31 13:53:00,
2013-03-31 09:02:00,66.0,61.0,29.89,NNW,347,9.0,14.0,85,0.00,,,0.01,,2013-03-31 14:02:00,
2013-03-31 09:12:00,66.0,61.0,29.89,NNW,347,9.0,14.0,85,0.00,,,0.01,,2013-03-31 14:12:00,
2013-03-31 09:22:00,65.0,59.0,29.91,North,0,9.0,15.0,81,0.00,,,0.01,,2013-03-31 14:22:00,
2013-03-31 09:32:00,64.0,58.0,29.92,NNW,341,10.0,20.0,81,0.00,,,0.01,,2013-03-31 14:32:00,
2013-03-31 09:42:00,64.0,58.0,29.92,NNW,341,10.0,20.0,81,0.00,,,0.01,,2013-03-31 14:42:00,
2013-03-31 09:52:00,64.0,58.0,29.91,NNE,15,7.0,15.0,81,0.00,,,0.00,,2013-03-31 14:52:00,
2013-03-31 10:02:00,64.0,58.0,29.92,NNE,27,5.0,14.0,80,0.00,,,0.00,,2013-03-31 15:02:00,
2013-03-31 10:12:00,64.0,58.0,29.92,NNE,27,5.0,14.0,80,0.00,,,0.00,,2013-03-31 15:12:00,
2013-03-31 10:22:00,63.0,57.0,29.93,NE,35,7.0,15.0,81,0.00,,,0.00,,2013-03-31 15:22:00,
2013-03-31 10:33:00,64.0,58.0,29.93,NNE,18,9.0,14.0,80,0.00,,,0.00,,2013-03-31 15:33:00,
2013-03-31 10:43:00,64.0,58.0,29.93,NNE,18,9.0,14.0,80,0.00,,,0.00,,2013-03-31 15:43:00,
2013-03-31 10:54:00,64.0,57.0,29.93,NNE,23,5.0,12.0,79,0.00,,,0.00,,2013-03-31 15:54:00,
2013-03-31 11:03:00,65.0,57.0,29.95,NNE,17,8.0,12.0,76,0.00,,,0.00,,2013-03-31 16:03:00,
2013-03-31 11:13:00,65.0,57.0,29.95,NNE,17,8.0,12.0,76,0.00,,,0.00,,2013-03-31 16:13:00,
2013-03-31 11:23:00,65.0,57.0,29.94,NE,46,5.0,13.0,75,0.00,,,0.00,,2013-03-31 16:23:00,
2013-03-31 11:33:00,67.0,58.0,29.93,ENE,59,7.0,10.0,72,0.00,,,0.00,,2013-03-31 16:33:00,
2013-03-31 11:43:00,67.0,58.0,29.93,ENE,59,7.0,10.0,72,0.00,,,0.00,,2013-03-31 16:43:00,
2013-03-31 11:53:00,67.0,58.0,29.93,East,81,5.0,9.0,72,0.00,,,0.00,,2013-03-31 16:53:00,
2013-03-31 12:02:00,67.0,57.0,29.93,NE,53,9.0,12.0,70,0.00,,,0.00,,2013-03-31 17:02:00,
2013-03-31 12:12:00,67.0,57.0,29.93,NE,53,9.0,12.0,70,0.00,,,0.00,,2013-03-31 17:12:00,
2013-03-31 12:22:00,68.0,58.0,29.94,NE,49,3.0,10.0,70,0.00,,,0.00,,2013-03-31 17:22:00,
2013-03-31 12:32:00,68.0,57.0,29.95,NE,54,6.0,12.0,68,0.00,,,0.00,,2013-03-31 17:32:00,
2013-03-31 12:42:00,68.0,57.0,29.95,NE,54,6.0,12.0,68,0.00,,,0.00,,2013-03-31 17:42:00,
2013-03-31 12:52:00,68.0,57.0,29.95,NE,39,2.0,9.0,68,0.00,,,0.00,,2013-03-31 17:52:00,
2013-03-31 13:02:00,69.0,58.0,29.95,North,355,5.0,12.0,67,0.00,,,0.00,,2013-03-31 18:02:00,
2013-03-31 13:12:00,69.0,58.0,29.95,North,355,5.0,12.0,67,0.00,,,0.00,,2013-03-31 18:12:00,
2013-03-31 13:22:00,71.0,58.0,29.94,NE,55,5.0,10.0,64,0.00,,,0.00,,2013-03-31 18:22:00,
2013-03-31 13:32:00,71.0,58.0,29.94,NE,49,9.0,15.0,63,0.00,,,0.00,,2013-03-31 18:32:00,
2013-03-31 13:42:00,71.0,58.0,29.94,NE,49,9.0,15.0,63,0.00,,,0.00,,2013-03-31 18:42:00,
2013-03-31 13:53:00,71.0,58.0,29.93,ENE,63,10.0,18.0,63,0.00,,,0.00,,2013-03-31 18:53:00,
2013-03-31 14:03:00,71.0,58.0,29.93,NE,39,9.0,14.0,63,0.00,,,0.00,,2013-03-31 19:03:00,
2013-03-31 14:12:00,71.0,58.0,29.93,NE,39,9.0,14.0,63,0.00,,,0.00,,2013-03-31 19:12:00,
2013-03-31 14:22:00,72.0,58.0,29.93,NE,47,9.0,13.0,62,0.00,,,0.00,,2013-03-31 19:22:00,
2013-03-31 14:32:00,72.0,57.0,29.93,NNW,338,8.0,12.0,60,0.00,,,0.00,,2013-03-31 19:32:00,
2013-03-31 14:42:00,72.0,57.0,29.93,NNW,338,8.0,12.0,60,0.00,,,0.00,,2013-03-31 19:42:00,
2013-03-31 14:54:00,72.0,57.0,29.93,NNE,17,6.0,12.0,60,0.00,,,0.00,,2013-03-31 19:54:00,
2013-03-31 15:02:00,72.0,57.0,29.93,NNW,342,2.0,12.0,59,0.00,,,0.00,,2013-03-31 20:02:00,
2013-03-31 15:12:00,72.0,57.0,29.93,NNW,342,2.0,12.0,59,0.00,,,0.00,,2013-03-31 20:12:00,
2013-03-31 15:22:00,72.0,57.0,29.92,NNW,333,7.0,12.0,59,0.00,,,0.00,,2013-03-31 20:22:00,
2013-03-31 15:33:00,73.0,57.0,29.92,North,352,6.0,12.0,57,0.00,,,0.00,,2013-03-31 20:33:00,
2013-03-31 15:43:00,73.0,57.0,29.92,North,352,6.0,12.0,57,0.00,,,0.00,,2013-03-31 20:43:00,
2013-03-31 15:53:00,73.0,57.0,29.91,North,351,7.0,14.0,57,0.00,,,0.00,,2013-03-31 20:53:00,
2013-03-31 16:02:00,73.0,55.0,29.91,NNW,346,5.0,12.0,54,0.00,,,0.00,,2013-03-31 21:02:00,
2013-03-31 16:12:00,73.0,55.0,29.91,NNW,346,5.0,12.0,54,0.00,,,0.00,,2013-03-31 21:12:00,
2013-03-31 16:22:00,75.0,57.0,29.91,ENE,58,6.0,13.0,54,0.00,,,0.00,,2013-03-31 21:22:00,
2013-03-31 16:33:00,74.0,56.0,29.90,North,5,5.0,9.0,54,0.00,,,0.00,,2013-03-31 21:33:00,
2013-03-31 16:43:00,74.0,56.0,29.90,North,5,5.0,9.0,54,0.00,,,0.00,,2013-03-31 21:43:00,
2013-03-31 16:53:00,74.0,56.0,29.90,NE,50,3.0,12.0,53,0.00,,,0.00,,2013-03-31 21:53:00,
2013-03-31 17:03:00,75.0,55.0,29.89,NE,51,9.0,15.0,50,0.00,,,0.00,,2013-03-31 22:03:00,
2013-03-31 17:13:00,75.0,55.0,29.89,NE,51,9.0,15.0,50,0.00,,,0.00,,2013-03-31 22:13:00,
2013-03-31 17:23:00,75.0,56.0,29.88,NNE,16,6.0,12.0,51,0.00,,,0.00,,2013-03-31 22:23:00,
2013-03-31 17:33:00,75.0,56.0,29.88,NNE,12,5.0,12.0,51,0.00,,,0.00,,2013-03-31 22:33:00,
2013-03-31 17:42:00,75.0,56.0,29.88,NNE,12,5.0,12.0,51,0.00,,,0.00,,2013-03-31 22:42:00,
2013-03-31 17:53:00,74.0,56.0,29.88,NE,52,6.0,12.0,54,0.00,,,0.00,,2013-03-31 22:53:00,
2013-03-31 18:03:00,74.0,56.0,29.88,ENE,57,9.0,14.0,54,0.00,,,0.00,,2013-03-31 23:03:00,
2013-03-31 18:13:00,74.0,56.0,29.88,ENE,57,9.0,14.0,54,0.00,,,0.00,,2013-03-31 23:13:00,
2013-03-31 18:22:00,74.0,56.0,29.88,NE,37,4.0,10.0,54,0.00,,,0.00,,2013-03-31 23:22:00,
2013-03-31 18:32:00,74.0,56.0,29.88,North,0,5.0,9.0,54,0.00,,,0.00,,2013-03-31 23:32:00,
2013-03-31 18:42:00,74.0,56.0,29.88,North,0,5.0,9.0,54,0.00,,,0.00,,2013-03-31 23:42:00,
2013-03-31 18:53:00,74.0,56.0,29.88,North,350,4.0,12.0,53,0.00,,,0.00,,2013-03-31 23:53:00,
2013-03-31 19:02:00,73.0,55.0,29.88,NNE,30,5.0,7.0,53,0.00,,,0.00,,2013-04-01 00:02:00,
2013-03-31 19:12:00,73.0,55.0,29.88,NNE,30,5.0,7.0,53,0.00,,,0.00,,2013-04-01 00:12:00,
2013-03-31 19:22:00,73.0,55.0,29.88,NNW,340,3.0,7.0,53,0.00,,,0.00,,2013-04-01 00:22:00,
2013-03-31 19:32:00,73.0,55.0,29.88,NNW,342,3.0,8.0,54,0.00,,,0.00,,2013-04-01 00:32:00,
2013-03-31 19:42:00,73.0,55.0,29.88,NNW,342,3.0,8.0,54,0.00,,,0.00,,2013-04-01 00:42:00,
2013-03-31 19:53:00,72.0,55.0,29.89,NNW,348,5.0,7.0,55,0.00,,,0.00,,2013-04-01 00:53:00,
2013-03-31 20:02:00,71.0,54.0,29.89,North,350,3.0,7.0,55,0.00,,,0.00,,2013-04-01 01:02:00,
2013-03-31 20:12:00,71.0,54.0,29.89,North,350,3.0,7.0,55,0.00,,,0.00,,2013-04-01 01:12:00,
2013-03-31 20:22:00,71.0,54.0,29.90,North,350,2.0,5.0,56,0.00,,,0.00,,2013-04-01 01:22:00,
2013-03-31 20:32:00,70.0,54.0,29.90,North,350,1.0,5.0,57,0.00,,,0.00,,2013-04-01 01:32:00,
2013-03-31 20:42:00,70.0,54.0,29.90,North,350,1.0,5.0,57,0.00,,,0.00,,2013-04-01 01:42:00,
2013-03-31 20:53:00,69.0,54.0,29.91,North,350,0.0,0.0,58,0.00,,,0.00,,2013-04-01 01:53:00,
2013-03-31 21:02:00,68.0,53.0,29.91,North,350,0.0,0.0,59,0.00,,,0.00,,2013-04-01 02:02:00,
2013-03-31 21:12:00,68.0,53.0,29.91,North,350,0.0,0.0,59,0.00,,,0.00,,2013-04-01 02:12:00,
2013-03-31 21:22:00,68.0,54.0,29.91,North,350,0.0,0.0,60,0.00,,,0.00,,2013-04-01 02:22:00,
2013-03-31 21:32:00,67.0,54.0,29.92,North,350,0.0,0.0,62,0.00,,,0.00,,2013-04-01 02:32:00,
2013-03-31 21:42:00,67.0,54.0,29.92,North,350,0.0,0.0,62,0.00,,,0.00,,2013-04-01 02:42:00,
2013-03-31 21:53:00,66.0,53.0,29.92,North,350,0.0,0.0,63,0.00,,,0.00,,2013-04-01 02:53:00,
2013-03-31 22:02:00,66.0,53.0,29.92,North,350,0.0,0.0,64,0.00,,,0.00,,2013-04-01 03:02:00,
2013-03-31 22:12:00,66.0,53.0,29.92,North,350,0.0,0.0,64,0.00,,,0.00,,2013-04-01 03:12:00,
2013-03-31 22:22:00,65.0,53.0,29.93,North,350,0.0,0.0,66,0.00,,,0.00,,2013-04-01 03:22:00,
2013-03-31 22:33:00,65.0,54.0,29.93,North,350,0.0,0.0,67,0.00,,,0.00,,2013-04-01 03:33:00,
2013-03-31 22:43:00,65.0,54.0,29.93,North,350,0.0,0.0,67,0.00,,,0.00,,2013-04-01 03:43:00,
2013-03-31 22:53:00,65.0,54.0,29.93,North,350,0.0,0.0,67,0.00,,,0.00,,2013-04-01 03:53:00,
2013-03-31 23:02:00,64.0,53.0,29.94,North,350,0.0,0.0,68,0.00,,,0.00,,2013-04-01 04:02:00,
2013-03-31 23:13:00,64.0,53.0,29.94,North,350,0.0,0.0,68,0.00,,,0.00,,2013-04-01 04:13:00,
2013-03-31 23:23:00,63.0,53.0,29.94,North,350,0.0,0.0,71,0.00,,,0.00,,2013-04-01 04:23:00,
2013-03-31 23:32:00,62.0,53.0,29.95,North,350,0.0,0.0,73,0.00,,,0.00,,2013-04-01 04:32:00,
2013-03-31 23:43:00,62.0,53.0,29.95,North,350,0.0,0.0,73,0.00,,,0.00,,2013-04-01 04:43:00,
2013-03-31 23:53:00,61.0,53.0,29.95,North,350,0.0,0.0,74,0.00,,,0.00,,2013-04-01 04:53:00,